[[{"header":{"parameterUnit":"m.s-1","parameterCategory":1,"la1":30.2991,"la2":30.254,"lo1":-89.0895,"lo2":-89.0444,"dy":0.0017,"dx":0.0017,"nx":28,"ny":28,"refTime":"2025-04-14T03:00:00:Z","depth":0,"parameterNumber":2,"parameterNumberName":"U-component_of_WINDS"},"data":[0,0,0,0,0,0,0,0,0,0,0,0,0,0,0,0,0,0,0,0,0,0,0,0,0,0,0,0,0,0,0,0,0,0,0,0,0,0,0,0,0,0,0,0,0,0,0,0,0,0,0,0,0,0,0,0,0,0,5.1719,5.172,0,5.1883,5.1885,5.1887,5.1865,5.1862,5.186,5.1857,5.2025,5.2032,5.2039,0,0,0,0,0,0,0,0,0,0,0,0,0,5.1382,5.1389,5.1718,5.172,5.1723,5.1883,5.1885,5.1887,5.1865,5.1862,5.1859,5.1856,5.2023,5.2031,5.204,0,0,0,0,0,0,0,0,0,0,0,0,0,5.1536,5.1391,5.1718,5.1731,5.1734,5.1883,5.1885,5.1888,5.1866,5.1862,5.1858,5.1854,5.202,5.203,5.2041,5.2187,0,0,5.2073,5.2077,0,0,0,0,0,0,0,0,5.1527,5.1548,5.1727,5.173,5.1734,5.1849,5.1828,5.1988,5.1867,5.1816,5.1857,5.1852,5.197,5.1984,5.2024,5.2195,5.2202,5.2074,5.208,5.2085,5.2088,0,0,0,0,0,0,0,5.1517,5.1541,5.1784,5.173,5.1734,5.1728,5.1745,5.1859,5.1914,5.182,5.1819,5.1839,5.1971,5.2014,5.2028,5.2205,5.2074,5.2083,5.2089,5.2093,5.2501,5.2505,0,0,0,0,0,0,5.1503,5.1532,5.1778,5.1789,5.1618,5.1737,5.1756,5.1816,5.1912,5.1923,5.1842,5.1837,5.1998,5.2016,5.2034,5.2209,5.2085,5.2094,5.2101,5.2496,5.2502,5.2507,0,0,0,0,0,0,5.1496,5.1525,5.1772,5.166,5.1691,5.1747,5.1815,5.1822,5.1865,5.1929,5.1939,5.1876,5.1996,5.2019,5.2149,5.2215,5.2099,5.2109,5.2491,5.2498,5.2504,5.2563,0,0,0,0,0,0,5.1486,5.1523,5.1579,5.1662,5.1697,5.1885,5.1819,5.1828,5.1883,5.1878,5.1963,5.1974,5.1994,5.2133,5.2159,5.2227,5.2117,5.2485,5.2494,5.2502,5.2555,5.2571,5.2584,0,0,0,0,0,5.1474,5.159,5.1582,5.1612,5.177,5.1888,5.1909,5.193,5.1889,5.1945,5.1986,5.1971,5.2204,5.2146,5.2176,5.2248,5.2481,5.2492,5.2501,5.2549,5.2567,5.2584,0,0,0,0,0,0,5.1514,5.1601,5.1594,5.174,5.1807,5.1884,5.1957,5.195,5.203,5.2022,5.2045,5.2065,5.2195,5.2235,5.2169,5.2393,5.2337,5.2353,5.2362,5.2381,5.2395,5.2382,5.2126,0,0,0,0,0,5.154,5.163,5.1701,5.1823,5.1857,5.1901,5.1954,5.1964,5.2035,5.2063,5.2114,5.2182,5.227,5.2328,5.2413,5.2561,5.2578,5.2625,5.2639,5.2651,5.2664,5.2743,5.2763,5.254,5.254,5.254,0,0,5.1595,5.1653,5.1708,5.1832,5.1885,5.1977,5.1925,5.2025,5.2092,5.2078,5.2203,5.2242,5.232,5.2459,5.2522,5.2496,5.273,5.2664,5.2672,5.268,5.2755,5.2776,5.2795,5.2547,5.2546,5.2544,0,0,5.174,5.1794,5.19,5.1954,5.2035,5.2064,5.2089,5.2168,5.2193,5.2319,5.2309,5.239,5.2542,5.2597,5.2645,5.2809,5.2797,5.2836,5.2911,5.2987,5.3004,5.302,5.3076,5.3096,5.2849,5.285,5.285,0,5.1797,5.1935,5.1955,5.2056,5.2109,5.21,5.2207,5.2258,5.2363,5.24,5.2368,5.2558,5.261,5.276,5.2799,5.2839,5.2867,5.2826,5.3,5.3016,5.3031,5.3085,5.3106,5.2854,5.2853,5.2853,5.2852,0,5.1999,5.2095,5.2171,5.2271,5.2334,5.2437,5.2472,5.2532,5.2537,5.2568,5.2695,5.2757,5.2853,5.289,5.2896,5.304,5.3021,5.2995,5.2938,5.3056,5.3107,5.3128,5.2859,5.2858,5.2857,5.2856,0,0,5.2175,5.2284,5.2312,5.2356,5.2444,5.2518,5.2619,5.2713,5.2763,5.2836,5.292,5.3048,5.3024,5.3078,5.309,5.3157,5.328,5.3123,5.3125,5.3148,5.3439,5.3457,5.348,5.3273,5.3277,5.328,5.3432,0,5.2327,5.2507,5.2527,5.2687,5.2774,5.2766,5.2854,5.2917,5.2948,5.3026,5.3061,5.3151,5.3113,5.3146,5.3212,5.3251,5.3338,5.3241,5.335,5.3354,5.3329,5.3507,5.3527,5.3667,5.3452,5.3456,5.3458,0,5.2528,5.2605,5.2773,5.2846,5.2884,5.2963,5.3049,5.3124,5.3194,5.3212,5.3272,5.3275,5.3378,5.3318,5.346,5.3393,5.3439,5.3465,5.347,5.348,5.3412,5.3519,5.3713,5.3733,5.349,5.3487,5.3485,0,5.2636,5.2782,5.2901,5.2939,5.3029,5.3084,5.3123,5.319,5.3244,5.3319,5.3354,5.3441,5.3487,5.3554,5.3579,5.3534,5.3719,5.3661,5.3735,5.3734,5.3773,5.377,5.3974,5.3806,5.3806,5.3806,5.3805,0,5.2803,5.2905,5.295,5.3023,5.3136,5.3159,5.3271,5.3308,5.3367,5.3445,5.3444,5.3518,5.3548,5.3627,5.3647,5.376,5.3782,5.3798,5.3802,5.3797,5.3794,5.3826,5.3816,5.3811,5.381,5.3809,5.3808,0,5.2942,5.2977,5.3105,5.3178,5.3199,5.328,5.3342,5.3412,5.3442,5.3541,5.3566,5.3613,5.3705,5.3737,5.385,5.3863,5.3993,5.399,5.3969,5.3969,5.404,5.4032,5.427,5.4301,5.4115,5.4117,5.4118,0,5.3045,5.3124,5.3205,5.3257,5.3299,5.3384,5.3439,5.3463,5.352,5.3605,5.3664,5.3755,5.3829,5.3976,5.402,5.4105,5.4102,5.418,5.4115,5.4106,5.41,5.4094,5.4101,5.4191,5.4193,5.4195,5.4196,0,5.3223,5.3236,5.3315,5.34,5.3465,5.3533,5.3599,5.3641,5.3676,5.3739,5.3833,5.389,5.4003,5.4093,5.418,5.4219,5.4213,5.4216,5.4237,5.4232,5.4215,5.4222,5.3999,5.421,5.4209,5.4208,5.4207,5.4206,5.3346,5.3414,5.3482,5.3569,5.3621,5.3682,5.375,5.3788,5.3866,5.396,5.397,5.407,5.4136,5.4251,5.4295,5.4373,5.4351,5.4383,5.439,5.4397,5.44,5.4205,5.4389,5.4389,5.4388,5.4388,5.4388,0,5.3522,5.3564,5.3645,5.3736,5.3804,5.3792,5.3864,5.3921,5.4009,5.4071,5.4144,5.425,5.4336,5.4387,5.4473,5.4525,5.4524,5.4547,5.4542,5.4551,5.4416,5.4388,5.4546,5.4546,5.4546,5.4546,5.4546,5.4546,5.3621,5.3735,5.3755,5.3894,5.3936,5.4033,5.4075,5.413,5.4179,5.4298,5.4369,5.4402,5.4458,5.4548,5.4626,5.4639,5.467,5.4694,5.4704,5.4577,5.4561,5.4545,5.4519,5.4701,5.4701,5.4832,5.4833,5.4834]},{"header":{"parameterUnit":"m.s-1","parameterCategory":1,"la1":30.2991,"la2":30.254,"lo1":-89.0895,"lo2":-89.0444,"dy":0.0017,"dx":0.0017,"nx":28,"ny":28,"refTime":"2025-04-14T03:00:00:Z","depth":0,"parameterNumber":3,"parameterNumberName":"V-component_of_WINDS"},"data":[0,0,0,0,0,0,0,0,0,0,0,0,0,0,0,0,0,0,0,0,0,0,0,0,0,0,0,0,0,0,0,0,0,0,0,0,0,0,0,0,0,0,0,0,0,0,0,0,0,0,0,0,0,0,0,0,0,0,3.3785,3.3786,0,3.3864,3.3865,3.3866,3.3848,3.3846,3.3845,3.3843,3.3922,3.3925,3.3929,0,0,0,0,0,0,0,0,0,0,0,0,0,3.3612,3.3616,3.3785,3.3786,3.3787,3.3864,3.3865,3.3866,3.3848,3.3846,3.3845,3.3843,3.3921,3.3925,3.3929,0,0,0,0,0,0,0,0,0,0,0,0,0,3.3689,3.3617,3.3785,3.3787,3.3788,3.3864,3.3865,3.3867,3.3849,3.3846,3.3844,3.3842,3.3919,3.3924,3.393,3.4007,0,0,3.3946,3.3948,0,0,0,0,0,0,0,0,3.3685,3.3695,3.3786,3.3787,3.3788,3.3844,3.3833,3.3914,3.3849,3.3826,3.3843,3.3841,3.3898,3.3904,3.3924,3.4011,3.4014,3.3946,3.3949,3.3951,3.3953,0,0,0,0,0,0,0,3.3679,3.3692,3.3816,3.3787,3.3789,3.3783,3.3791,3.3848,3.3873,3.3827,3.3826,3.3836,3.3898,3.3919,3.3926,3.4015,3.3946,3.3951,3.3954,3.3956,3.4167,3.4169,0,0,0,0,0,0,3.3674,3.3688,3.3814,3.3819,3.373,3.3788,3.3797,3.3828,3.3872,3.3877,3.3838,3.3835,3.3911,3.392,3.3929,3.4021,3.3951,3.3956,3.3959,3.4164,3.4167,3.417,0,0,0,0,0,0,3.367,3.3685,3.381,3.3753,3.3768,3.3793,3.3828,3.3831,3.3853,3.3881,3.3884,3.3856,3.391,3.3921,3.3987,3.4023,3.3959,3.3963,3.4161,3.4165,3.4169,3.4207,0,0,0,0,0,0,3.3665,3.3684,3.3715,3.3754,3.3772,3.387,3.3831,3.3834,3.3862,3.3859,3.3898,3.3902,3.3909,3.398,3.3993,3.403,3.3968,3.4158,3.4163,3.4167,3.4203,3.4212,3.4219,0,0,0,0,0,3.3659,3.3722,3.3717,3.3732,3.3811,3.3872,3.3882,3.3889,3.3865,3.3895,3.3913,3.3901,3.4017,3.3987,3.4001,3.404,3.4156,3.4162,3.4167,3.4199,3.421,3.4219,0,0,0,0,0,0,3.3686,3.3728,3.3722,3.38,3.3832,3.3868,3.3907,3.3901,3.394,3.3935,3.3942,3.395,3.4018,3.4035,3.4,3.4116,3.4083,3.4092,3.4102,3.4113,3.4121,3.4115,3.3972,0,0,0,0,0,3.3702,3.3749,3.3782,3.3847,3.3864,3.3883,3.3909,3.3912,3.3946,3.3959,3.3982,3.4014,3.4057,3.4086,3.4128,3.4205,3.4212,3.4239,3.4247,3.4253,3.4261,3.4301,3.4313,3.4188,3.4188,3.4188,0,0,3.3733,3.3762,3.3791,3.3853,3.3879,3.3926,3.3895,3.3946,3.3981,3.3967,3.4031,3.4048,3.4084,3.4156,3.4188,3.4172,3.4297,3.4261,3.4266,3.427,3.4308,3.432,3.433,3.4192,3.4191,3.4191,0,0,3.3815,3.3842,3.3899,3.3925,3.3965,3.3976,3.399,3.4027,3.4038,3.4102,3.4092,3.4132,3.4208,3.4234,3.4257,3.4346,3.4336,3.4359,3.4402,3.4441,3.4451,3.446,3.449,3.4502,3.4366,3.4366,3.4366,0,3.385,3.3922,3.3929,3.3981,3.4008,3.3998,3.4054,3.4079,3.413,3.4147,3.4129,3.4222,3.4246,3.4323,3.4344,3.4363,3.4378,3.4355,3.4449,3.4458,3.4466,3.4496,3.4507,3.4369,3.4369,3.4368,3.4368,0,3.3961,3.4011,3.4052,3.4102,3.4133,3.4187,3.4201,3.4231,3.423,3.4243,3.4308,3.4335,3.4382,3.44,3.44,3.4476,3.4465,3.4448,3.4415,3.4481,3.4508,3.4519,3.4372,3.4372,3.4371,3.437,0,0,3.4064,3.4116,3.4131,3.4152,3.4194,3.4232,3.4284,3.433,3.4356,3.439,3.4433,3.4496,3.448,3.4506,3.4509,3.4543,3.461,3.4522,3.4522,3.4536,3.4694,3.4706,3.4719,3.4603,3.4606,3.4607,3.469,0,3.4149,3.4243,3.425,3.4334,3.4379,3.4369,3.4415,3.4444,3.4457,3.4496,3.451,3.4554,3.453,3.4546,3.4579,3.4595,3.4642,3.4589,3.4642,3.4644,3.4633,3.4733,3.4747,3.4824,3.4701,3.4703,3.4704,0,3.4262,3.43,3.4389,3.4422,3.4441,3.4483,3.4524,3.4562,3.4594,3.4601,3.4629,3.4626,3.4678,3.4643,3.4713,3.4677,3.4699,3.4709,3.4712,3.4718,3.4678,3.474,3.4849,3.486,3.4722,3.472,3.4719,0,3.4326,3.44,3.4462,3.4481,3.4522,3.4551,3.4569,3.4599,3.4626,3.4662,3.4678,3.472,3.4742,3.4773,3.478,3.4754,3.485,3.4816,3.4856,3.4855,3.4876,3.4875,3.4989,3.4891,3.4891,3.4891,3.4891,0,3.442,3.4475,3.4492,3.453,3.459,3.4596,3.4655,3.4671,3.4697,3.4737,3.4731,3.4768,3.4775,3.4813,3.4819,3.4876,3.4886,3.4892,3.4892,3.4892,3.4891,3.4906,3.4901,3.4894,3.4893,3.4893,3.4892,0,3.4503,3.4517,3.4584,3.4617,3.4627,3.4669,3.4697,3.4732,3.4744,3.4794,3.4806,3.4824,3.4869,3.4879,3.4931,3.4935,3.5002,3.4998,3.4991,3.4991,3.503,3.5026,3.5157,3.5174,3.5066,3.5067,3.5068,0,3.4562,3.4604,3.4641,3.4668,3.4688,3.4731,3.4758,3.4764,3.4793,3.4831,3.4862,3.4906,3.4941,3.5012,3.5029,3.5068,3.5064,3.5108,3.507,3.5068,3.5064,3.5061,3.5064,3.5115,3.5116,3.5117,3.5118,0,3.4665,3.467,3.4709,3.4751,3.4784,3.4817,3.4848,3.487,3.488,3.4912,3.4958,3.4985,3.5038,3.5081,3.5121,3.5137,3.5129,3.5129,3.514,3.514,3.5135,3.5137,3.501,3.5126,3.5125,3.5125,3.5124,3.5124,3.4738,3.4773,3.4805,3.4849,3.4873,3.4902,3.4937,3.4953,3.4991,3.5036,3.5037,3.5086,3.5115,3.5167,3.5186,3.5224,3.521,3.5227,3.5231,3.5235,3.5238,3.5129,3.5231,3.5231,3.5231,3.523,3.523,0,3.4839,3.4859,3.4899,3.4943,3.4977,3.4967,3.5001,3.5029,3.5073,3.5101,3.5136,3.5187,3.5228,3.5248,3.5288,3.5313,3.531,3.5324,3.5322,3.5325,3.5248,3.5234,3.5325,3.5325,3.5325,3.5325,3.5325,3.5325,3.4896,3.4956,3.4964,3.5034,3.5053,3.5102,3.5122,3.5148,3.517,3.5228,3.5262,3.5275,3.5299,3.534,3.5377,3.5381,3.5396,3.5411,3.5413,3.5341,3.5331,3.5322,3.5308,3.5414,3.5414,3.5487,3.5488,3.5488]}]]